Location: Nebula Knoll Observatory
(43.6666°N, 71.0000°W)
Time: 14:35:08
(UTC-04:00)

Daily predictions for brighter satellites

Satellite Brightness Start Highest point End
(mag) Time Altitude Azimuth Time Altitude Azimuth Time Altitude Azimuth
Cosmos 192 4.4 18:42:59 10° S 18:47:52 64° ESE 18:52:48 10° NNE
SL-8 R/B 4.4 18:46:39 10° SSW 18:51:03 37° SE 18:55:27 10° ENE
Cosmos 1707 4.3 18:49:26 10° NNW 18:53:05 41° W 18:56:43 10° SSW
Helios 1B rocket 3.8 18:50:11 10° NE 18:53:10 19° E 18:56:08 10° SE
Resurs 01 Rocket 2.6 18:49:35 10° SE 18:53:21 28° ENE 18:57:08 10° N
Cosmos 1603 4.2 18:48:34 10° S 18:53:49 39° ESE 18:59:08 10° NE
Meteor 1-22 Rocket 4.1 18:50:10 10° S 18:55:29 86° E 19:00:48 10° NNE
NOSS 3-2 (C) 3.5 18:51:07 10° SSW 18:57:12 79° ESE 19:03:53 10° NE
Meteor 1-24 Rocket 4.0 18:52:35 10° NNW 18:58:12 75° W 19:03:35 10° S
Cosmos 1953 2.8 18:56:37 10° SSE 19:00:19 38° E 19:04:01 10° NNE
COSMO-SKYMED 1 2.6 18:57:00 10° NNE 19:01:22 88° W 19:05:42 10° SSW
Nadezhda 4 Rocket 4.5 18:56:25 10° N 19:02:15 38° ENE 19:07:58 10° SE
ISS -2.2 18:59:29 10° SSW 19:02:17 27° SE 19:05:05 10° ENE
In-Cosmos 22 4.3 18:56:48 10° N 19:02:34 64° ENE 19:08:15 10° SSE
ATLAS CENTAUR R/B 4.5 19:07:37 10° W 19:09:33 13° WSW 19:11:25 10° SW
Cosmos 1072 Rocket 4.5 19:04:37 10° S 19:10:43 85° E 19:16:53 10° N
Cosmos 1674 3.8 19:08:59 10° NNE 19:12:16 25° ENE 19:15:33 10° SE
Cosmos 2333 Rocket 4.4 19:07:42 10° WSW 19:12:27 26° NW 19:17:15 10° N
Cosmos 1470 4.0 19:09:43 10° SE 19:12:38 21° E 19:15:33 10° NE
Cosmos 1076 Rocket 3.6 19:08:59 10° N 19:13:21 87° W 19:17:42 10° S
Spot 2 Rocket 3.7 19:09:49 10° SE 19:14:39 49° ENE 19:19:30 10° N
Cosmos 1048 Rocket 4.4 19:13:16 10° S 19:18:10 40° ESE 19:23:02 10° NE
Cosmos 1766 Rocket 3.5 19:14:09 10° N 19:18:33 88° E 19:22:53 10° S
ATLAS 5 CENTAUR R/B 2.1 19:14:34 10° SW 19:19:22 76° NW 19:24:38 10° NE
Abrixas 2.6 19:19:18 10° SW 19:22:14 58° SSE 19:24:15 18° ENE
Cosmos 1269 Rocket 4.1 19:18:25 10° S 19:23:30 52° ESE 19:28:37 10° NNE
Cosmos 2151 4.4 19:20:34 10° NNE 19:23:38 19° ENE 19:24:58 17° E
Cosmos-2242 3.0 19:20:00 10° S 19:24:19 66° E 19:28:42 10° NNE
SJ-6B 3.2 19:24:35 10° S 19:28:35 71° WSW 19:32:41 10° NNW
USA 215 3.7 19:23:22 10° ENE 19:29:27 40° SE 19:35:29 10° SSW
HJ-1C 3.3 19:28:06 10° SSE 19:31:27 66° ENE 19:34:49 10° N
ATLAS CENTAUR R/B 3.9 19:27:16 10° SW 19:32:34 87° NW 19:50:24 10° NE
FengYun 1-2 T 4.3 19:27:27 10° SSE 19:32:49 57° ENE 19:38:12 10° N
Cosmos 1346 2.9 19:30:24 10° N 19:33:23 81° ENE 19:36:21 10° SSE
FREGAT/IRIS 2.9 19:30:25 10° S 19:33:29 70° WSW 19:36:35 10° NNW
Cosmos 1544 3.0 19:31:04 10° S 19:34:46 67° E 19:38:30 10° NNE
TELKOM 3 3.1 19:34:46 10° WNW 19:37:39 73° SSW 19:38:25 36° SE
METEOR-M 4.1 19:32:58 10° SSE 19:38:20 89° ENE 19:43:43 10° NNW
Cosmos 724 4.5 19:33:02 10° SW 19:38:59 81° WNW 19:45:08 10° NNE
Cosmos 1758 3.9 19:40:51 10° SSW 19:44:53 61° W 19:48:59 10° N
Cosmos 2034 Rocket 4.2 19:39:44 10° SSW 19:46:00 77° W 19:52:23 10° N
CZ-4B DEB 3.0 19:49:16 35° SE 19:50:14 49° ENE 19:53:24 10° N
SL-16 R/B 4.0 19:45:10 10° WSW 19:50:14 32° NW 19:55:20 10° N
Cosmos 1500 Rocket 3.5 19:46:12 10° N 19:50:39 69° E 19:55:04 10° SSE
Cosmos 1842 Rocket 3.4 19:48:36 10° S 19:52:53 64° E 19:57:13 10° NNE
ERS-1 Rocket 4.2 19:55:49 23° ENE 19:56:02 23° ENE 19:59:55 10° NNE
FENGYUN 3A 3.6 19:51:30 10° SSE 19:56:50 68° ENE 20:02:12 10° N
Helios 1A 3.3 19:56:37 10° S 20:00:48 66° WSW 20:05:01 10° NNW
Cosmos 1328 3.9 20:02:31 10° N 20:06:26 53° E 20:06:52 50° ESE
CZ-2D R/B 3.1 20:06:27 39° SSE 20:07:48 71° ENE 20:11:41 10° N
Cosmos 1110 Rocket 4.2 20:03:10 10° NNW 20:08:22 52° ENE 20:10:02 38° ESE
Meteor 1-29 3.3 20:05:07 10° N 20:08:37 67° WNW 20:12:05 10° SSW
SL-14 R/B 4.3 20:06:27 10° N 20:09:17 31° NE 20:09:17 31° NE
Cosmos 1627 Rocket 4.4 20:09:21 10° N 20:15:32 65° E 20:19:36 23° SSE
GPS 2-04 Rocket1 4.2 20:12:54 10° SW 20:15:05 21° SSW 20:15:05 21° SSW
ASTEX 1 3.3 20:12:04 10° N 20:17:00 86° W 20:21:53 10° S
H-2A R/B 2.7 20:17:06 46° S 20:18:13 88° WSW 20:22:06 10° NNW
Cosmos 839 Rocket 4.2 20:12:05 10° NNW 20:19:52 89° ENE 20:23:23 30° SSE
Cosmos 1943 Rocket 2.4 20:14:50 10° NNW 20:20:17 48° ENE 20:21:11 44° E
ALOS 2.6 20:20:14 13° S 20:24:24 63° W 20:29:03 10° NNW
Cosmos 2251 Rocket 3.4 20:22:22 10° S 20:27:29 58° ESE 20:32:38 10° NNE
Cosmos 2369 Rocket 2.4 20:22:12 10° NNW 20:27:50 70° WSW 20:31:02 27° S
Helios 1B rocket 4.0 20:24:48 10° N 20:28:37 37° WNW 20:32:24 10° SW
Resurs 01 Rocket 3.5 20:25:49 10° SSW 20:29:44 30° W 20:33:40 10° NW
Cosmos 1943 3.2 20:24:43 10° SSW 20:30:22 81° WNW 20:36:01 10° NNE
CENTAUR R/B 2.5 20:26:56 10° SW 20:33:02 84° NW 20:40:00 10° NE
SL-8 R/B 3.8 20:28:40 10° WSW 20:33:26 70° NNW 20:34:18 56° NE
Gbstr 26 Del rocket 3.3 20:30:46 10° WSW 20:35:21 89° NNW 20:36:27 57° NE
ISS -1.7 20:35:31 10° W 20:37:47 35° WNW 20:37:47 35° WNW
Cosmos 1331 Rocket 3.9 20:34:17 10° NNW 20:39:38 84° ENE 20:40:19 68° SE
Cosmos 2263 4.3 20:33:52 10° NNW 20:39:39 78° WSW 20:41:31 45° S
BREEZE-M DEB (TANK) 3.0 20:29:58 10° WNW 20:40:58 83° NNE 20:41:39 67° E
ERBS 4.1 20:42:34 10° NW 20:44:32 30° NNW 20:44:32 30° NNW
Cosmos 2279 Rocket 3.8 20:48:02 43° S 20:50:13 78° E 20:56:27 10° N
GP-B 3.8 20:47:15 10° N 20:51:35 53° W 20:52:57 37° SW
Cosmos 2058 3.7 20:48:42 10° NNW 20:51:47 47° NNW 20:51:47 47° NNW
Cosmos 1302 Rocket 4.3 20:48:05 10° NNW 20:52:26 56° NNE 20:52:26 56° NNE
H-2A R/B 4.2 21:03:10 19° N 21:03:10 19° N 21:04:33 10° N
Cosmos 2151 4.3 20:57:11 10° NNW 21:01:05 36° W 21:01:36 35° WSW
Envisat 3.5 21:05:36 52° N 21:05:36 52° N 21:09:27 10° NNW
ATLAS 5 CENTAUR R/B 4.4 21:01:35 10° WNW 21:05:03 18° NNW 21:08:42 10° NNE
Cosmos 2221 4.3 21:09:42 26° NNW 21:09:42 26° NNW 21:11:43 10° N
Cosmos 1655 Rocket 4.3 21:01:56 10° NNW 21:08:04 63° W 21:10:10 41° SSW
Cosmos 2026 Rocket 4.5 21:02:42 10° NNW 21:08:40 56° W 21:11:21 32° SSW
Meteor 2-1 Rocket 4.4 21:08:31 52° SW 21:09:55 73° WNW 21:15:50 10° N
Cosmos 1428 Rocket 4.4 21:04:29 10° N 21:10:48 82° W 21:11:17 76° SSW
USA 215 3.5 21:09:20 31° NE 21:12:41 67° NW 21:19:07 10° WSW
H-2A R/B 4.5 21:30:01 12° NNE 21:30:01 12° NNE 21:30:35 10° N
ERS-1 Rocket 4.2 21:35:50 38° WNW 21:35:50 38° WNW 21:39:22 10° NNW
Cosmos 1943 Rocket 4.0 21:59:10 10° NW 22:02:43 25° W 22:02:43 25° W
